Regional Weather Roundup
Issued by NWS

Home | Current Version | Previous Version | Graphics & Text | Print | Product List | Glossary On
Versions: 1 2 3 4 5 6 7 8 9 10 11 12 13 14 15 16 17 18 19 20 21 22 23 24 25 26 27 28 29 30 31 32 33 34 35 36 37 38 39 40 41 42 43 44 45 46 47 48 49 50
000
ASUS45 KBOU 260510
RWRCO

WEATHER ROUNDUP FOR COLORADO
NATIONAL WEATHER SERVICE DENVER/BOULDER CO
1100 PM MDT FRI MAY 25 2018

NOTE: "FAIR" INDICATES FEW OR NO CLOUDS BELOW 12000 FEET WITH NO
SIGNIFICANT WEATHER AND/OR OBSTRUCTIONS TO VISIBILITY.

COZ001>005-013-030-031-260600-
...NORTHWEST COLORADO...

CITY           SKY/WX    TMP DP  RH WIND       PRES   REMARKS
CRAIG          FAIR      48  33  56 CALM      30.05R
HAYDEN         FAIR      57  36  45 S3        30.08S
MEEKER         FAIR      53  26  35 E5        30.07R
RANGELY        FAIR      60  22  22 CALM      29.95S
RABBIT EARS PA FAIR      54  18  24 SW7       30.37F
STEAMBOAT SPGS FAIR      56  34  44 NE5       30.10S
WALDEN         FAIR      46  34  61 SE12      30.20F
$$

COZ006>008-011-260600-
...WEST CENTRAL VALLEYS...

CITY           SKY/WX    TMP DP  RH WIND       PRES   REMARKS
GRAND JUNCTION FAIR      72  11   9 E13       29.93S
MONTROSE       FAIR      63  15  15 SE7       30.06R
EAGLE          FAIR      60  22  23 E7        30.12R
RIFLE          FAIR      65  15  14 E8        30.01R
DELTA          FAIR      69  11  10 NE14G24   30.00R
NUCLA          FAIR      63   9  12 E13       30.08S
$$

COZ017>023-064>068-260600-
...SOUTHWEST COLORADO...

CITY           SKY/WX    TMP DP  RH WIND       PRES   REMARKS
DURANGO        FAIR      52  18  26 CALM      30.14R
CORTEZ         FAIR      53  19  26 E7        30.07R
PAGOSA SPRINGS FAIR      50   7  18 CALM      30.23R
TELLURIDE      FAIR      58   8  14 SE9       30.32S
WOLF CREEK PAS FAIR      46   0  14 S9        30.57S
$$

COZ009-010-012-014-032>034-037-058>063-260600-
...CENTRAL COLORADO...

CITY           SKY/WX    TMP DP  RH WIND       PRES   REMARKS
ASPEN          FAIR      53  25  33 SW10      30.19R
BUENA VISTA    FAIR      59  16  19 W8        30.19S
COPPER MTN     FAIR      54  10  17 CALM      30.51F
BERTHOUD PASS  FAIR      43  32  65 SE10G25   30.54F
COTTONWOOD PAS FAIR      64  12  13 W9        30.34S
GUNNISON       FAIR      53  21  28 CALM      30.21R
GRANBY         FAIR      55  30  37 NE6       30.22F
KREMMLING      FAIR      59  28  31 CALM      30.17R
LEADVILLE      FAIR      42  21  43 NE6       30.33F
MONARCH PASS   FAIR      50  12  22 MISG      30.61S
SALIDA         FAIR      66  14  13 W6        30.23R
SUNLIGHT       FAIR      45   3  18 SW12G24   30.42S
WILKERSON PASS FAIR      52  23  32 SE5       30.48S
$$

COZ069>075-260600-
...SAN LUIS VALLEY/SANGRE DE CRISTO MOUNTAINS...

CITY           SKY/WX    TMP DP  RH WIND       PRES   REMARKS
ALAMOSA        FAIR      53  17  24 SW9       30.17S
DEL NORTE      FAIR      62   8  12 W13       30.21F
LA VETA PASS   FAIR      54  10  17 S22G31    30.47S
SAGUACHE       NOT AVBL
$$

COZ035-036-038>040-260600-
...NORTHERN COLORADO FRONT RANGE...

CITY           SKY/WX    TMP DP  RH WIND       PRES   REMARKS
DENVER INTL AP FAIR      63  39  41 S14       30.00S
AURORA         PTCLDY    64  37  37 S8        30.03R
FRONT RANGE AP FAIR      67  37  32 SE12      30.02S
ERIE MUNI ARPT FAIR      63  42  45 CALM      30.04S
BOULDER MUN AP FAIR      70  36  28 SW5       29.99F
CENTENNIAL     FAIR      69  37  30 S12       30.04S
BROOMFIELD     FAIR      70  36  28 NW3       30.03S
FORT COLLINS   FAIR      67  48  50 CALM      30.00S
LONGMONT       FAIR      70  39  32 NW10      30.00F
$$

COZ041-046-047-076>085-087-088-260600-
...PIKES PEAK/PALMER DIVIDE AND SOUTHERN FOOTHILLS...

CITY           SKY/WX    TMP DP  RH WIND       PRES   REMARKS
COLO. SPRINGS  FAIR      70  41  34 E5        30.11R
A. F. ACADEMY  FAIR      64  35  34 SE8       30.12S
SCHRIEVER AFB  NOT AVBL
CHEYENNE MTN   FAIR      69  40  35 SW15      30.10S
ELLICOTT         N/A    N/A N/A N/A SE16G24   30.07S
FALCON         FAIR      63  38  39 S6        30.16S
FORT CARSON    FAIR      71  41  34 N5        30.06S
LIMON          FAIR      57  47  69 SE7       30.04S
MONUMENT HILL  FAIR      63  37  39 SE16G22   30.15S
CANON CITY     CLEAR     77  45  31 NE13G21   29.99S
WALSENBURG     FAIR      70  21  16 W8        30.04R
TRINIDAD       FAIR      70  37  29 SE5       30.05R
$$

COZ042>045-048>051-090-091-260600-
...NORTHEAST COLORADO...

CITY           SKY/WX    TMP DP  RH WIND       PRES   REMARKS
GREELEY ARPT   FAIR      63  47  55 E6        29.97S
AKRON          FAIR      65  50  58 S9        29.98S
BURLINGTON     FAIR      67  50  54 S13       29.96S
WRAY           FAIR      72  43  35 CALM      29.93S
YUMA           FAIR      61  43  51 S6        29.95S
STERLING       FAIR      63  48  59 CALM      29.93S
HOLYOKE        FAIR      64  50  59 SE3       29.94S
FORT MORGAN    FAIR      68  44  41 SE7       29.97S
$$

COZ086-089-092>099-260600-
...SOUTHEAST COLORADO...

CITY           SKY/WX    TMP DP  RH WIND       PRES   REMARKS
PUEBLO         FAIR      75  47  36 E12       29.94R
LA JUNTA       FAIR      76  49  38 SE13      29.94S
LAMAR          FAIR      72  50  45 SE13      29.90S
SPRINGFIELD      N/A     67  53  61 SE10      29.98R
$$



USA.gov is the U.S. government's official web portal to all federal, state and local government web resources and services.